Location: Tel Aviv
(32.0670°N, 34.7670°E)
Time: 03:15:56
(UTC+03:00)

Tiros 1 - Pass Details

Date: 24 January 2022
Orbit: 629 x 663 km, 48.4° (Epoch: 26 May)

Event Time Altitude Azimuth Distance (km) Brightness Sun altitude
Rises 03:45:15 0° 318° (NW) 2,977 - -36.7°
Reaches altitude 10° 03:48:07 10° 334° (NNW) 2,058 - -36.1°
Maximum altitude 03:51:44 21° 24° (NNE) 1,442 - -35.4°
Exits shadow 03:53:31 17° 54° (NE) 1,607 9.6 -35.0°
Drops below altitude 10° 03:55:20 10° 74° (ENE) 2,037 10.4 -34.6°
Sets 03:58:08 0° 91° (E) 2,938 11.6 -34.0°
